Location: Pasadena, ca
(34.1243°N, 118.1037°W)
Time: 16:15:00
(UTC-08:00)

Vanguard 2 - Visible Passes

Search period start: 17 February 2019 00:00
Search period end: 27 February 2019 00:00
Orbit: 553 x 2939 km, 32.9° (Epoch: 17 February)

Date Brightness Start Highest point End Pass type
(mag) Time Alt. Az. Time Alt. Az. Time Alt. Az.
17 Feb 10.6 02:14:30 23° ESE 02:14:30 23° ESE 02:18:17 10° E visible
17 Feb 9.2 04:15:56 49° SW 04:17:40 54° SSW 04:30:54 10° SE visible
18 Feb 10.4 02:31:38 27° ESE 02:31:38 27° ESE 02:36:32 10° ESE visible
18 Feb 9.4 04:33:05 38° WSW 04:35:46 44° SSW 04:48:30 10° SE visible
19 Feb 10.1 02:48:49 32° SE 02:48:49 32° SE 02:54:40 10° ESE visible
19 Feb 9.7 04:50:15 28° WSW 04:53:53 35° SSW 05:05:45 10° SE visible
20 Feb 10.0 03:06:02 34° SE 03:06:02 34° SE 03:12:37 10° SE visible
20 Feb 10.1 05:07:28 19° WSW 05:12:02 27° SSW 05:22:33 10° SSE visible
21 Feb 9.9 03:23:17 33° SSE 03:23:17 33° SSE 03:30:20 10° SE visible
21 Feb 10.4 05:24:44 12° WSW 05:30:12 20° SSW 05:38:41 10° S visible
22 Feb 9.9 03:40:34 30° S 03:40:34 30° S 03:47:43 10° SE visible
22 Feb 10.7 05:44:07 10° SW 05:48:25 13° SSW 05:53:28 10° S visible
22 Feb 9.5 19:21:32 10° S 19:21:42 10° SSE 19:21:42 10° SSE visible
23 Feb 10.1 03:57:52 24° S 03:57:52 24° S 04:04:40 10° SSE visible
23 Feb 9.3 19:37:26 10° SSW 19:39:02 15° S 19:39:02 15° S visible
24 Feb 10.3 04:15:12 18° SSW 04:15:12 18° SSW 04:20:56 10° SSE visible
24 Feb 9.2 19:54:32 10° SW 19:56:21 18° SSW 19:56:21 18° SSW visible
25 Feb 10.6 04:32:32 12° SSW 04:32:39 12° SSW 04:35:38 10° S visible
25 Feb 9.3 20:12:03 10° SW 20:13:38 19° SW 20:13:38 19° SW visible
26 Feb 9.2 18:21:59 10° SSW 18:26:07 19° SSE 18:29:24 10° ESE visible
26 Feb 9.7 20:29:49 10° WSW 20:30:55 16° WSW 20:30:55 16° WSW visible
